Location: Wildlife_Club
(35.6000°N, 81.4330°W)
Time: 06:34:47
(UTC-04:00)

Vanguard 2 Rocket - Pass Details

Date: 21 June 2019
Orbit: 553 x 3327 km, 32.9° (Epoch: 16 August)

Event Time Altitude Azimuth Distance (km) Brightness Sun altitude
Rises 02:57:34 0° 277° (W) 5,286 10.7 -27.2°
Reaches altitude 10° 03:00:29 10° 275° (W) 4,592 10.3 -27.0°
Maximum altitude 03:14:34 72° 195° (SSW) 3,008 9.2 -25.8°
Drops below altitude 10° 03:34:47 10° 116° (ESE) 6,278 11.2 -23.7°
Sets 03:39:36 0° 114° (ESE) 7,236 11.6 -23.2°
